DAH6006 DAAG-DABB

Flight info

Callsign DAH6006
Flight time N/A
Altitude 25000
Route ALR DCT BNA DCT BJA UA411 ANB
Aircraft B738/M-SDE2E3FGHIRWXY/LB1

Departure

Time 2026-05-05 19:32
Airport Houari Boumediene Airport (DAAG)

Arrival

Time N/A
Airport Annaba Rabah Bitat Airport (DABB)
Time Latitude Longitude Altitude Speed Heading
2026-05-05 19:21 36.70265 3.21576 83 ft 0 kts 173°
2026-05-05 19:28 36.70247 3.21590 84 ft 6 kts 112°
2026-05-05 19:28 36.70229 3.21642 84 ft 6 kts 117°
2026-05-05 19:28 36.70195 3.21683 84 ft 7 kts 152°
2026-05-05 19:28 36.70135 3.21709 84 ft 9 kts 161°
2026-05-05 19:29 36.70066 3.21739 84 ft 11 kts 161°
2026-05-05 19:29 36.69988 3.21772 84 ft 12 kts 161°
2026-05-05 19:29 36.69903 3.21808 85 ft 13 kts 160°
2026-05-05 19:29 36.69812 3.21849 85 ft 14 kts 160°
2026-05-05 19:30 36.69708 3.21896 84 ft 16 kts 159°
2026-05-05 19:30 36.69595 3.21949 84 ft 17 kts 159°
2026-05-05 19:30 36.69502 3.21994 85 ft 8 kts 159°
2026-05-05 19:30 36.69449 3.22026 86 ft 9 kts 139°
2026-05-05 19:31 36.69439 3.22101 86 ft 10 kts 66°
2026-05-05 19:31 36.69454 3.22133 86 ft 15 kts 57°
2026-05-05 19:31 36.69606 3.22383 88 ft 68 kts 53°
2026-05-05 19:31 36.70113 3.23221 163 ft 162 kts 50°
2026-05-05 19:32 36.70892 3.24387 867 ft 196 kts 54°
2026-05-05 19:32 36.71511 3.26018 1762 ft 225 kts 75°
2026-05-05 19:32 36.71621 3.27935 3062 ft 230 kts 96°
2026-05-05 19:32 36.71369 3.29834 4457 ft 231 kts 98°
2026-05-05 19:33 36.70954 3.31835 4895 ft 248 kts 115°
2026-05-05 19:33 36.70006 3.33609 4725 ft 244 kts 127°
2026-05-05 19:33 36.69073 3.35382 4764 ft 251 kts 119°
2026-05-05 19:33 36.68387 3.37482 5595 ft 271 kts 108°
2026-05-05 19:34 36.67955 3.39685 7034 ft 270 kts 101°
2026-05-05 19:34 36.67627 3.41935 8469 ft 270 kts 99°
2026-05-05 19:34 36.67321 3.44232 9675 ft 281 kts 98°
2026-05-05 19:35 36.66637 3.49282 11719 ft 314 kts 98°
2026-05-05 19:35 36.66264 3.51980 12649 ft 330 kts 98°
2026-05-05 19:35 36.65865 3.54869 13522 ft 347 kts 98°
2026-05-05 19:35 36.65454 3.57845 14397 ft 362 kts 98°
2026-05-05 19:36 36.65020 3.60958 15499 ft 371 kts 98°
2026-05-05 19:36 36.64577 3.64142 16583 ft 378 kts 98°
2026-05-05 19:36 36.64123 3.67387 17626 ft 385 kts 98°
2026-05-05 19:36 36.63670 3.70629 18658 ft 391 kts 98°
2026-05-05 19:37 36.63202 3.73986 19679 ft 397 kts 98°
2026-05-05 19:37 36.62738 3.77359 20634 ft 403 kts 98°
2026-05-05 19:37 36.62266 3.80823 21568 ft 408 kts 98°
2026-05-05 19:37 36.61796 3.84281 22484 ft 414 kts 98°
2026-05-05 19:38 36.61312 3.87828 23360 ft 419 kts 98°
2026-05-05 19:38 36.60820 3.91415 24235 ft 424 kts 98°
2026-05-05 19:38 36.60322 3.95045 24990 ft 430 kts 98°
2026-05-05 19:38 36.59821 3.98716 25249 ft 434 kts 98°
2026-05-05 19:39 36.59318 4.02384 25274 ft 432 kts 98°
2026-05-05 19:39 36.58812 4.06061 25274 ft 431 kts 98°
2026-05-05 19:39 36.58308 4.09711 25281 ft 431 kts 98°
2026-05-05 19:39 36.57800 4.13386 25289 ft 431 kts 98°
2026-05-05 19:40 36.57295 4.17044 25287 ft 431 kts 98°
2026-05-05 19:40 36.56791 4.20702 25286 ft 430 kts 98°
2026-05-05 19:40 36.56288 4.24369 25285 ft 431 kts 98°
2026-05-05 19:40 36.55782 4.28055 25290 ft 432 kts 98°
2026-05-05 19:41 36.55286 4.31683 25293 ft 431 kts 98°
2026-05-05 19:41 36.54780 4.35386 25298 ft 432 kts 97°
2026-05-05 19:41 36.54282 4.39042 25298 ft 432 kts 97°
2026-05-05 19:41 36.53785 4.42697 25300 ft 432 kts 97°
2026-05-05 19:42 36.53286 4.46387 25303 ft 433 kts 97°
2026-05-05 19:42 36.52786 4.50096 25303 ft 433 kts 97°
2026-05-05 19:42 36.52291 4.53775 25308 ft 433 kts 97°
2026-05-05 19:42 36.51798 4.57443 25309 ft 432 kts 97°
2026-05-05 19:43 36.51311 4.61078 25311 ft 431 kts 97°
2026-05-05 19:43 36.50816 4.64768 25310 ft 431 kts 97°
2026-05-05 19:43 36.50330 4.68409 25311 ft 431 kts 97°
2026-05-05 19:43 36.49837 4.72105 25317 ft 431 kts 97°
2026-05-05 19:44 36.49353 4.75744 25315 ft 431 kts 97°
2026-05-05 19:44 36.48867 4.79407 25317 ft 431 kts 97°
2026-05-05 19:44 36.48381 4.83078 25315 ft 432 kts 97°
2026-05-05 19:44 36.47895 4.86748 25314 ft 431 kts 97°
2026-05-05 19:45 36.47412 4.90409 25311 ft 432 kts 97°
2026-05-05 19:45 36.46926 4.94102 25308 ft 433 kts 97°
2026-05-05 19:45 36.46447 4.97758 25311 ft 432 kts 97°
2026-05-05 19:45 36.45969 5.01417 25303 ft 433 kts 97°
2026-05-05 19:46 36.45488 5.05099 25307 ft 433 kts 97°
2026-05-05 19:46 36.45008 5.08778 25309 ft 433 kts 97°
2026-05-05 19:46 36.44530 5.12465 25308 ft 433 kts 97°
2026-05-05 19:46 36.44051 5.16160 25318 ft 432 kts 97°
2026-05-05 19:47 36.43577 5.19826 25320 ft 431 kts 97°
2026-05-05 19:47 36.43103 5.23489 25326 ft 431 kts 97°
2026-05-05 19:47 36.42635 5.27134 25327 ft 431 kts 96°
2026-05-05 19:47 36.42164 5.30801 25333 ft 431 kts 96°
2026-05-05 19:48 36.41696 5.34453 25336 ft 431 kts 96°
2026-05-05 19:48 36.41226 5.38133 25338 ft 430 kts 96°
2026-05-05 19:48 36.40760 5.41786 25339 ft 431 kts 96°
2026-05-05 19:48 36.40293 5.45458 25336 ft 430 kts 96°
2026-05-05 19:49 36.39832 5.49094 25336 ft 430 kts 96°
2026-05-05 19:49 36.39369 5.52751 25334 ft 430 kts 96°
2026-05-05 19:49 36.38908 5.56402 25328 ft 431 kts 96°
2026-05-05 19:49 36.38446 5.60065 25329 ft 430 kts 96°
2026-05-05 19:50 36.37984 5.63744 25323 ft 431 kts 96°
2026-05-05 19:50 36.37755 5.67396 25319 ft 428 kts 84°
2026-05-05 19:50 36.38441 5.70928 25316 ft 422 kts 65°
2026-05-05 19:50 36.39703 5.74183 25314 ft 419 kts 58°
2026-05-05 19:51 36.41161 5.77341 25310 ft 418 kts 56°
2026-05-05 19:51 36.42648 5.80393 25305 ft 417 kts 56°
2026-05-05 19:51 36.44164 5.83460 25301 ft 417 kts 55°
2026-05-05 19:51 36.45680 5.86513 25298 ft 417 kts 55°
2026-05-05 19:52 36.47199 5.89571 25288 ft 417 kts 55°
2026-05-05 19:52 36.48725 5.92646 25278 ft 417 kts 55°
2026-05-05 19:52 36.50251 5.95722 25272 ft 417 kts 55°
2026-05-05 19:52 36.51769 5.98787 25262 ft 417 kts 55°